Regional Weather Roundup
Issued by NWS

Home | Current Version | Previous Version | Graphics & Text | Print | Product List | Glossary On
Versions: 1 2 3 4 5 6 7 8 9 10 11 12 13 14 15 16 17 18 19 20 21 22 23 24 25 26 27 28 29 30 31 32 33 34 35 36 37 38 39 40 41 42 43 44 45 46 47 48 49 50
022
ASUS44 KLIX 171407
RWRLA
LOUISIANA WEATHER ROUNDUP
NATIONAL WEATHER SERVICE NEW ORLEANS LA
900 AM CDT FRI APR 17 2015

NOTE: "FAIR" INDICATES FEW OR NO CLOUDS BELOW 12,000 FEET WITH NO
      SIGNIFICANT WEATHER AND/OR OBSTRUCTIONS TO VISIBILITY.
      SKY/WX - SKY CONDITION AND SIGNIFICANT WEATHER.
      TMP - AIR TEMPERATURE.    DP   - DEWPOINT TEMPERATURE.
      RH  - RELATIVE HUMIDITY.  PRES - PRESSURE.
      HX  - HEAT INDEX.         WCI  - WIND CHILL INDEX.

*  THESE STATIONS ARE NOT NWS OR FAA STATIONS AND ARE NOT UNDER
   NWS QUALITY CONTROL.

LAZ040-048-061>063-065-066-069-171500-
SOUTHEAST LOUISIANA

CITY           SKY/WX    TMP DP  RH WIND       PRES   REMARKS
N.O. AUDUBON     N/A     73  71  95 MISG        N/A
N.O. INTL ARPT PTSUNNY   73  68  84 SE6       29.97S
N.O. LAKEFRONT CLOUDY    74  70  87 E6        29.98S
SLIDELL        CLOUDY    72  71  97 VRB5      29.98S
BATON ROUGE    PTSUNNY   72  68  87 E5        29.99R
BOOTHVILLE     PTSUNNY   72  70  93 SE9       29.99S
BELLE CHASSE   CLOUDY    72  68  87 SE5       29.97S
BOGALUSA*        N/A     73  67  83 NE5       30.00R
GALLIANO*      CLOUDY    72  70  92 CALM      29.97F
NEW ROADS*     FAIR      71  68  89 NE5       29.99R
GONZALES*      FAIR      73  70  91 SE6       29.97R
HAMMOND*       MOSUNNY   75  68  78 SE6       30.00R
HOUMA*         MOSUNNY   70  68  94 SE6       29.95F
PORT FOURCHON* PTSUNNY   73  70  88 SE9       30.02S

$$

LAZ041-044-053-054-171500-
SOUTHWEST LOUISIANA

CITY           SKY/WX    TMP DP  RH WIND       PRES   REMARKS
LAKE CHARLES   PTSUNNY   71  66  84 NE9       29.96R
LAFAYETTE      SUNNY     72  67  84 VRB6      29.96R
PATTERSON      CLOUDY    72  66  83 SE12      29.96R
SALT POINT       N/A     70  68  93 SE10G17   29.94S
NEW IBERIA     MOSUNNY   72  67  84 SE9       29.97R
CHENAULT AIRPK PTSUNNY   68  64  88 N12         N/A

$$

LAZ027-028-171500-
CENTRAL LOUISIANA

CITY           SKY/WX    TMP DP  RH WIND       PRES   REMARKS
FORT POLK      SUNNY     67  64  89 VRB6      29.98S
ALEXANDRIA INT SUNNY     69  64  84 CALM      29.98R
ALEXANDRIA     CLOUDY    67  65  93 VRB3      29.99S

$$

LAZ001-002-171500-
NORTHWEST LOUISIANA

CITY           SKY/WX    TMP DP  RH WIND       PRES   REMARKS
SHREVEPORT     PTSUNNY   67  62  84 CALM      30.00S
BARKSDALE AFB  NOT AVBL
DTN SHREVEPORT CLOUDY    67  62  84 CALM      30.00F

$$

LAZ014-016-171500-
NORTHEAST LOUISIANA

CITY           SKY/WX    TMP DP  RH WIND       PRES   REMARKS
MONROE         SUNNY     70  65  84 SW3       30.00R
TALLULAH       MOSUNNY   70  66  87 E7        29.99F

$$




USA.gov is the U.S. government's official web portal to all federal, state and local government web resources and services.